Regional Weather Roundup
Issued by NWS Mt. Holly, NJ

Home | Current Version | Previous Version | Text Only | Print | Product List | Glossary On
Versions: 1 2 3 4 5 6 7 8 9 10 11 12 13 14 15 16 17 18 19 20 21 22 23 24 25 26 27 28 29 30 31 32 33 34 35 36 37 38 39 40 41 42 43 44 45 46 47
000
ASUS41 KPHI 291911
RWRPHI

REGIONAL WEATHER ROUNDUP
NATIONAL WEATHER SERVICE MOUNT HOLLY NJ
300 PM EDT SUN MAR 29 2015

NOTE:  "FAIR" INDICATES FEW OR NO CLOUDS BELOW 12,000 FEET WITH NO
SIGNIFICANT WEATHER AND/OR OBSTRUCTIONS TO VISIBILITY.

 * = STATION DOES NOT REPORT PRECIPITATION (E.G. RAIN, SNOW, ETC.)
        OR FOG.

NJZ015>026-292000-
SOUTHERN NEW JERSEY

CITY           SKY/WX    TMP DP  RH WIND       PRES   REMARKS
POMONA         SUNNY     44   5  20 W9        30.25F
RIO GRANDE*    SUNNY    N/A N/A N/A W14G20    30.28F
MILLVILLE      SUNNY     43   8  23 NW7G18    30.26F
WRIGHTSTOWN    SUNNY     42   8  25 VRB6      30.22F
MOUNT HOLLY    SUNNY     41   9  26 NW6       30.25F
TRENTON        SUNNY     42   9  25 VRB7      30.22F

$$
NJZ001>014-292000-
NORTHERN NEW JERSEY

CITY           SKY/WX    TMP DP  RH WIND       PRES   REMARKS
SUSSEX         SUNNY     42   9  25 NW8       30.19F
ANDOVER*         N/A     42   6  22 MISG      30.18F
MORRISTOWN     SUNNY     43   7  22 N3G14     30.21F
NEWARK         MOSUNNY   45   3  17 N10G21    30.21F
TETERBORO      SUNNY     43   8  23 VRB7      30.20F
CALDWELL       SUNNY     42   4  20 NW12G17   30.21F
SOMERVILLE     SUNNY     45   4  18 NW8G17    30.20F
ALLAIRE*       SUNNY     43   5  21 W8G16     30.22F
TOMS RIVER*    SUNNY     43   3  19 NW12      30.23F

$$
PAZ043-044-047-054-055-060>062-066>071-292000-
EASTERN PENNSYLVANIA

CITY           SKY/WX    TMP DP  RH WIND       PRES   REMARKS
PHILADELPHIA   SUNNY     43   6  21 NW12      30.27F
NORTH PHILA    SUNNY     45   9  23 MISG      30.26F
BLUE BELL      SUNNY     43  14  31 W9        30.24F
DOYLESTOWN     SUNNY     41  11  29 VRB5      30.22F
QUAKERTOWN*    SUNNY     41   9  26 W5        30.23F
POTTSTOWN      SUNNY     41  11  29 VRB6      30.25F
LANCASTER      SUNNY     40  10  29 VRB7G18   30.26F
COATESVILLE    SUNNY     39  10  30 W10       30.25F WCI  32
READING        SUNNY     42   7  23 W10       30.24F
ALLENTOWN      SUNNY     42   7  23 VRB5      30.22F
MOUNT POCONO   MOSUNNY   34   5  29 W7G18     30.13F WCI  28
HAZLETON       SUNNY     36   9  32 W3        30.19F
WILKES BARRE   SUNNY     41   5  22 N7        30.17F

$$
DEZALL-MDZ008-012-015-019-020-292000-
DELAWARE AND EASTERN MARYLAND

CITY           SKY/WX    TMP DP  RH WIND       PRES   REMARKS
WILMINGTON     SUNNY     42   8  24 W14       30.28F
DOVER          SUNNY     43  13  29 W14G20    30.24F
GEORGETOWN     SUNNY     41   9  26 W10G18    30.29F
EASTON         SUNNY     41  12  30 NW9G18    30.35
PATUXENT       SUNNY     42   8  24 NW7       30.33F
OCEAN CITY     SUNNY     43  11  27 N13       30.29F
WALLOPS ISLAND SUNNY     43  13  29 NW12G21   30.31F
CAMBRIDGE      SUNNY     41  10  28 W13       30.32F
SALISBURY      SUNNY     41  12  30 NW10G21   30.30F

$$
PAZ001-021-NYZ056-072-MDZ011-DCZ001-292000-
OTHER NEARBY LOCATIONS

CITY           SKY/WX    TMP DP  RH WIND       PRES   REMARKS
HARRISBURG     MOSUNNY   43   5  20 W8        30.25F
STATE COLLEGE  SUNNY     41   7  24 W12       30.18F
WILLIAMSPORT   SUNNY     43   6  21 W6G16     30.21F
BINGHAMTON     SUNNY     34   7  32 W5        30.12F WCI  30
NEW YORK CITY  SUNNY     44   4  19 NW7       30.22F
BALTIMORE      MOSUNNY   43   9  24 W9        30.29F
WASHINGTON DC  MOSUNNY   46   9  22 NW9       30.33F

$$


USA.gov is the U.S. government's official web portal to all federal, state and local government web resources and services.